User: anonymous   Login
Location: Unspecified
(0.0000°N, 0.0000°E)
Time: 15:51:10
(UTC+02:00)
Language:

Hubble Space Telescope - Orbit

View from above orbital plane
View from above orbital plane
View from above satellite
View from above satellite

Ground track
Ground track

The orbit data is extracted from the following two-line orbital elements,

1 20580U 90037B   18289.13114583  .00000536  00000-0  21861-4 0  9994
2 20580  28.4705  35.5559 0002798   6.7531  16.9647 15.09112650363750
Epoch (UTC): 16 October 2018 03:08:51
Eccentricity: 0.0002798
inclination: 28.4705°
perigee height: 537 km
apogee height: 541 km
right ascension of ascending node: 35.5559°
argument of perigee: 6.7531°
revolutions per day: 15.09112650
mean anomaly at epoch: 16.9647°
orbit number at epoch: 36375

The dashed part of the orbit path shows where the satellite is in the earth's shadow,  

DLR